{"data":{"norad_id":51782,"epoch":"2026-09-20T04:20:16.528704Z","epoch_age_seconds":79727,"freshness":"FRESH","line1":"1 51782U 22017Q   26263.18074686 -.00000504  00000+0 -37773-5 0  9996","line2":"2 51782  53.1605 179.5600 0001357  76.7930 283.3224 15.34394084251778","mean_motion":15.34394084,"eccentricity":0.0001357,"inclination_deg":53.1605,"raan_deg":179.56,"arg_perigee_deg":76.793,"mean_anomaly_deg":283.3224,"bstar":-3.7773e-6,"rev_number":25177,"period_min":93.84811992015,"perigee_km":461.79251945564,"apogee_km":463.64912826904,"semimajor_km":6840.8578238623,"source":"CELESTRAK","updated_at":"2026-09-20T09:00:39.938796Z"}}